CAPE
373 367 315 352 365 406 579 571 592 656 525 391 196 299 352 428 422 442 522 428 440 438 568 573 538 578 580 520 443 457 449 330 521 733 599 551 548 980 960 734 454 354
376 373 339 374 434 416 473 553 490 547 528 520 496 317 326 428 394 443 493 463 439 481 559 606 640 678 649 496 426 470 469 328 423 480 599 566 627 957 834 845 716 507
382 323 254 369 481 505 481 549 494 401 488 430 418 297 227 267 252 331 420 374 420 537 537 582 647 712 663 443 357 444 510 492 464 485 532 894 732 603 534 532 576 456
340 223 204 276 333 388 400 400 470 431 418 394 438 400 257 279 351 326 337 347 343 462 621 640 570 538 644 438 282 356 491 545 575 736 715 853 726 716 626 519 430 417
304 284 309 319 306 316 376 390 439 554 384 370 353 413 316 256 276 310 346 284 301 435 591 683 603 633 609 487 462 580 685 580 600 614 713 806 646 660 538 467 391 584
354 378 458 452 406 390 426 436 389 328 364 444 328 404 391 392 434 337 243 378 355 408 559 581 578 651 636 535 462 617 680 656 705 683 619 635 701 602 515 477 570 839
426 408 426 459 450 487 450 390 358 370 438 466 381 341 349 347 437 438 354 389 488 408 498 557 495 513 556 638 586 621 522 649 648 759 655 692 582 490 413 488 590 801
377 414 402 382 361 412 472 441 390 394 370 363 342 368 380 402 463 526 495 486 502 478 494 580 508 545 544 482 340 463 553 792 691 862 621 877 873 543 494 518 1208 1147
317 323 330 334 399 432 403 423 394 352 396 386 406 555 478 465 504 568 518 490 475 453 492 542 526 458 352 360 421 456 545 740 708 798 840 1136 1045 1036 995 1004 1049 1205
312 282 265 259 308 398 430 381 360 415 383 387 362 452 458 542 463 526 471 465 454 394 437 494 509 392 279 334 531 626 566 676 895 989 1191 1321 1236 1262 1032 942 872 1235
2 2 210 234 145 33 212 396 396 394 549 378 378 410 467 457 525 588 559 516 492 406 438 523 571 390 267 429 584 623 637 878 986 1009 1182 1270 1277 1269 1096 1149 1213 1282
1 1 0 1 118 182 36 96 394 412 356 334 392 394 455 434 452 497 556 557 465 416 445 573 608 411 388 538 609 616 798 933 976 1073 1236 1260 1343 1295 1244 1288 1352 1316
0 0 0 1 2 2 21 105 232 367 400 379 363 412 422 406 430 446 491 532 422 370 404 574 605 386 361 505 606 624 625 790 1040 1176 1181 1262 739 742 628 1011 1356 1296
0 0 0 1 1 1 1 2 76 251 325 369 360 383 389 401 411 459 508 529 432 402 416 540 577 358 318 483 608 653 623 572 896 1100 1103 919 728 764 524 543 1126 1207
0 0 0 0 0 1 0 1 2 39 208 295 343 376 388 389 376 395 469 511 458 340 400 543 550 328 301 470 560 545 463 682 797 891 1041 1034 892 621 552 560 478 656
0 0 0 1 1 1 0 0 1 3 29 110 214 296 348 376 357 364 443 444 449 406 408 551 470 227 328 474 515 504 432 556 704 898 977 982 827 554 478 458 579 465
0 0 1 1 2 1 1 0 1 17 51 126 128 157 256 325 368 382 409 432 415 460 551 563 429 180 302 400 432 410 386 466 703 886 911 770 699 621 558 507 458 444
0 0 0 1 2 0 0 1 0 3 64 85 28 123 229 278 262 253 349 268 412 507 562 558 335 173 257 376 394 308 279 355 630 822 735 656 551 440 501 512 483 398
1 2 1 1 1 1 2 1 0 0 15 54 68 52 226 292 292 220 36 2 138 425 570 487 204 175 306 366 360 263 182 220 412 590 513 506 454 309 331 340 272 187
0 1 1 0 1 0 0 0 0 0 0 0 2 1 36 167 72 16 40 6 3 67 404 378 176 255 349 388 365 245 170 159 164 242 271 322 228 171 172 184 17 99
0 1 2 1 1 1 1 0 0 1 0 0 0 10 1 1 1 35 18 3 52 103 42 208 229 342 413 402 368 268 178 120 103 82 23 10 1 89 76 83 63 82
1 2 2 2 1 1 1 1 1 1 1 1 1 0 6 24 23 0 0 0 113 146 195 155 188 240 342 388 352 244 181 109 81 35 0 0 69 20 61 55 63 76
1 1 2 1 1 2 2 2 2 2 3 2 1 1 1 0 8 31 21 4 84 150 173 166 117 201 278 366 257 117 68 79 68 34 0 5 38 28 35 52 66 74
1 2 2 2 2 2 3 3 2 3 2 2 1 1 1 2 2 2 22 40 31 38 125 169 154 115 329 268 142 67 61 68 67 64 0 35 31 33 59 71 80 56
2 2 2 2 2 3 4 4 5 4 2 1 2 1 0 1 2 4 11 35 66 76 148 153 122 136 225 161 78 72 78 75 68 4 2 27 16 30 83 96 79 87
1 1 1 2 4 5 4 3 3 3 2 0 2 3 5 7 16 28 10 12 3 21 53 61 106 184 140 104 85 58 2 35 12 54 51 52 58 94 115 106 86 108
Wind_Speed
25 24 23 22 23 24 26 26 24 20 21 21 19 19 20 21 21 21 22 21 21 20 21 22 23 24 25 23 23 22 19 17 17 18 17 15 14 13 15 16 19 19
26 23 22 21 23 25 25 26 23 19 18 21 20 19 21 22 22 24 25 24 22 21 22 22 24 25 25 24 23 22 21 20 18 18 17 14 15 15 16 17 18 16
29 25 24 24 25 24 23 24 25 22 20 19 19 18 19 22 21 22 24 24 22 21 24 26 25 25 24 24 23 22 21 19 17 17 16 15 16 16 16 19 20 15
28 24 23 24 24 22 21 22 23 22 20 21 20 19 20 23 21 21 23 23 21 20 23 25 24 24 23 23 22 22 21 19 19 20 17 18 17 19 20 18 17 14
25 24 25 26 26 24 21 20 21 23 21 21 21 21 23 23 21 20 22 21 22 22 23 23 24 25 24 24 23 22 22 22 21 21 19 18 22 22 19 19 18 14
21 24 27 29 28 26 22 20 23 24 23 22 21 21 22 23 23 21 19 18 19 22 22 23 24 24 25 23 23 22 23 23 22 20 18 19 21 20 19 17 18 17
18 19 25 29 28 25 23 22 25 26 25 23 22 21 22 23 23 21 19 17 17 20 21 21 23 24 24 24 22 20 21 22 22 21 20 20 22 22 17 16 17 19
15 17 21 24 25 23 21 22 24 25 23 21 19 19 20 21 21 21 19 18 18 19 20 22 23 24 26 26 23 19 20 24 24 25 24 22 23 22 20 20 22 23
15 15 17 21 23 22 21 22 23 22 22 20 19 20 21 21 21 20 19 19 19 20 20 23 24 24 26 26 25 23 21 23 26 27 25 24 23 23 24 25 25 25
17 16 16 17 19 20 21 21 20 20 20 19 17 19 20 23 22 20 20 20 20 20 20 23 26 27 27 26 27 26 23 22 26 26 27 26 26 26 26 27 26 26
nan nan 16 14 14 nan 18 19 20 19 18 17 16 17 20 22 20 18 18 19 19 19 20 24 28 28 28 27 28 29 26 27 29 29 28 27 27 27 28 27 28 26
nan nan nan nan 12 11 nan nan 19 19 17 15 14 16 20 21 20 18 19 19 18 18 20 23 26 29 30 29 30 31 30 29 30 30 29 28 28 29 28 28 28 27
nan nan nan nan nan nan nan 12 15 15 14 12 12 13 16 18 18 17 18 19 19 19 19 21 23 25 29 30 31 32 30 31 31 31 31 31 32 31 25 23 26 27
nan nan nan nan nan nan nan nan nan 11 11 11 10 10 12 14 15 15 16 18 19 20 20 21 21 24 27 29 31 32 32 31 31 32 31 31 30 28 27 26 26 29
nan nan nan nan nan nan nan nan nan nan 11 11 11 11 12 12 14 14 14 15 17 19 21 24 22 23 27 29 30 30 31 31 32 32 31 30 29 30 28 27 28 27
nan nan nan nan nan nan nan nan nan nan nan 13 12 12 12 13 13 16 15 16 16 18 21 26 24 23 25 26 28 31 33 34 34 32 31 30 30 30 30 31 28 25
nan nan nan nan nan nan nan nan nan nan nan 15 14 14 13 14 15 15 16 16 16 18 21 26 27 25 24 24 26 31 34 35 33 32 31 29 30 33 30 30 29 29
nan nan nan nan nan nan nan nan nan nan nan nan nan 15 16 19 21 20 18 17 18 20 22 26 28 28 27 26 28 30 33 36 33 33 33 32 32 33 34 33 33 33
nan nan nan nan nan nan nan nan nan nan nan nan nan nan 19 21 24 22 nan nan 24 23 24 28 30 32 28 28 29 30 32 35 34 33 33 33 33 34 35 34 34 34
nan nan nan nan nan nan nan nan nan nan nan nan nan nan nan 24 nan nan nan nan nan nan 27 32 35 35 30 30 32 32 32 34 37 37 36 35 34 35 35 35 nan nan
nan nan nan nan nan nan nan nan nan nan nan nan nan nan nan nan nan nan nan nan nan 34 nan 34 35 37 32 33 36 35 34 35 39 nan nan nan nan nan nan nan nan nan
nan nan nan nan nan nan nan nan nan nan nan nan nan nan nan nan nan nan nan nan 37 37 36 35 36 39 34 35 38 37 38 37 nan nan nan nan nan nan nan nan nan nan
nan nan nan nan nan nan nan nan nan nan nan nan nan nan nan nan nan nan nan nan nan 40 38 37 40 42 40 37 40 40 nan nan nan nan nan nan nan nan nan nan nan nan
nan nan nan nan nan nan nan nan nan nan nan nan nan nan nan nan nan nan nan nan nan nan 42 42 42 44 46 43 41 nan nan nan nan nan nan nan nan nan nan nan nan nan
nan nan nan nan nan nan nan nan nan nan nan nan nan nan nan nan nan nan nan nan nan nan 47 46 43 44 48 48 nan nan nan nan nan nan nan nan nan nan nan nan nan nan
nan nan nan nan nan nan nan nan nan nan nan nan nan nan nan nan nan nan nan nan nan nan nan nan 47 44 46 51 nan nan nan nan nan nan nan nan nan nan 47 47 nan 47
Wind_Direction
268 265 266 269 267 267 268 263 256 263 273 268 263 270 271 267 262 255 251 248 243 235 234 237 243 245 245 244 246 249 248 250 249 246 254 262 259 262 265 274 270 267
260 258 260 263 264 266 266 259 253 259 267 266 257 255 262 266 264 256 251 247 243 246 248 245 243 246 246 245 246 247 245 247 250 244 249 262 255 256 258 269 270 268
257 255 251 252 259 266 266 255 248 254 265 263 252 248 256 260 266 268 265 262 253 250 252 251 247 245 248 248 247 245 244 247 247 245 248 255 256 264 261 258 259 265
257 252 250 251 258 263 266 257 252 257 262 261 257 250 250 257 257 257 259 265 266 264 259 258 256 250 248 249 250 247 245 243 242 243 246 248 252 254 257 259 259 263
251 248 245 244 246 251 257 252 246 252 262 265 260 253 252 256 258 255 257 258 262 267 267 267 263 257 255 251 247 243 245 241 242 246 246 245 247 251 252 257 263 271
248 242 240 241 242 244 250 247 239 243 252 262 266 259 255 258 259 263 266 265 263 264 265 265 265 259 251 249 248 243 248 248 248 251 246 245 249 251 247 252 263 267
253 248 242 243 241 245 246 240 235 238 246 254 260 262 259 256 258 266 271 270 270 266 265 268 269 261 253 245 239 237 245 252 253 254 252 245 247 250 247 251 259 264
259 261 252 245 242 241 243 239 237 237 239 246 253 258 261 259 259 262 266 269 274 275 270 270 273 266 260 253 241 228 237 245 250 251 247 246 251 255 260 258 260 261
251 259 256 248 240 239 236 235 235 237 240 245 251 256 263 265 264 267 269 273 279 279 274 269 271 269 262 255 247 240 231 237 247 248 248 248 252 256 260 259 259 260
249 246 244 244 238 235 229 231 235 233 238 246 250 254 262 266 263 261 267 274 280 283 281 274 273 268 262 253 249 246 237 236 244 248 247 249 252 255 257 257 261 261
nan nan 240 239 235 nan 222 223 227 228 233 239 245 250 255 262 264 258 258 266 272 282 285 280 274 271 263 252 245 246 245 241 243 245 247 249 252 255 258 259 261 262
nan nan nan nan 233 228 nan nan 216 218 221 233 245 246 249 256 266 269 268 270 273 278 283 282 278 266 257 251 246 246 247 245 244 244 247 250 254 253 255 261 261 265
nan nan nan nan nan nan nan 213 206 210 215 227 240 248 245 250 261 272 273 272 272 274 281 285 282 267 254 250 246 246 249 250 247 245 247 250 256 260 255 255 263 265
nan nan nan nan nan nan nan nan nan 218 222 232 241 253 256 254 260 268 272 272 272 273 273 274 279 270 258 253 249 246 247 250 249 247 248 251 257 260 258 256 260 260
nan nan nan nan nan nan nan nan nan nan 233 237 248 258 262 265 268 268 270 275 277 276 272 265 269 269 260 256 253 248 247 250 250 248 250 254 260 263 265 261 257 258
nan nan nan nan nan nan nan nan nan nan nan 238 242 253 260 269 277 272 270 270 275 278 274 264 262 259 261 268 259 249 247 247 248 248 252 257 262 261 260 259 261 258
nan nan nan nan nan nan nan nan nan nan nan 245 249 256 264 269 280 283 276 274 278 278 274 263 258 256 267 269 268 265 253 251 251 250 252 257 260 259 259 259 260 259
nan nan nan nan nan nan nan nan nan nan nan nan nan 246 261 268 272 274 271 274 277 277 270 263 257 257 263 268 268 269 260 253 250 249 251 253 255 256 255 258 258 256
nan nan nan nan nan nan nan nan nan nan nan nan nan nan 247 267 269 272 nan nan 256 266 266 260 253 253 258 263 267 270 267 257 249 249 251 252 253 255 257 258 258 257
nan nan nan nan nan nan nan nan nan nan nan nan nan nan nan 246 nan nan nan nan nan nan 256 252 248 249 251 256 262 265 264 253 248 248 247 248 249 252 253 257 nan nan
nan nan nan nan nan nan nan nan nan nan nan nan nan nan nan nan nan nan nan nan nan 245 nan 245 243 243 248 254 258 262 261 251 246 nan nan nan nan nan nan nan nan nan
nan nan nan nan nan nan nan nan nan nan nan nan nan nan nan nan nan nan nan nan 248 246 246 243 238 231 245 252 257 259 258 245 nan nan nan nan nan nan nan nan nan nan
nan nan nan nan nan nan nan nan nan nan nan nan nan nan nan nan nan nan nan nan nan 247 245 244 240 231 235 249 258 259 nan nan nan nan nan nan nan nan nan nan nan nan
nan nan nan nan nan nan nan nan nan nan nan nan nan nan nan nan nan nan nan nan nan nan 247 246 241 232 236 238 244 nan nan nan nan nan nan nan nan nan nan nan nan nan
nan nan nan nan nan nan nan nan nan nan nan nan nan nan nan nan nan nan nan nan nan nan 248 246 240 235 235 238 nan nan nan nan nan nan nan nan nan nan nan nan nan nan
nan nan nan nan nan nan nan nan nan nan nan nan nan nan nan nan nan nan nan nan nan nan nan nan 242 239 237 237 nan nan nan nan nan nan nan nan nan nan 246 244 nan 246